Погода в Инвернессе

Великобритания     57°28′37″N   4°13′39″W
темп.,
°C
ветер,
м/с
пор.,
м/с
влажн.,
%
обл.,
%
осадки,
мм/ч
давл.,
гПа
погр.,
м
23 апреля, пт
пт2301:00+3юз1182100 0.0 102923
04:00+3юз118194 0.0 102831
07:00+4юз1176100 0.0 102940
10:00+9св116377 0.0 1029295
13:00+11св4362100 0.0 1029600
16:00+9св567279 0.0 1029360
19:00+7ссв4679100 0.0 1030305
22:00+5ссз2388100 0.0 103189
24 апреля, сб
сб2401:00+4сз118979 0.0 103156
04:00+3сз119322 0.0 103146
07:00+4сз119035 0.0 1031102
10:00+8св227546 0.0 1032464
13:00+10св326817 0.0 1031643
16:00+10св447147 0.0 1031479
19:00+8св467988 0.0 1031355
22:00+5сз119189 0.0 103265
25 апреля, вс
вс2501:00+4зюз0093100 0.0 103230
04:00+4ююз1194100 0.0 103238
07:00+5ююз008992 0.0 103159
10:00+10ссв01697 0.0 1031348
13:00+12всв336122 0.0 1030823
16:00+10ссв3369100 0.0 1029283
19:00+9всв2278100 0.0 1028146
22:00+6юв0087100 0.0 102811
26 апреля, пн
пн2601:00+6юз2386100 0.0 102657
04:00+6юз3783100 0.0 1024157
07:00+8юз4977100 0.0 1021306
10:00+8юз51081100 0.3 1018935
13:00+9зюз4680100 0.9 1016619
16:00+9зсз367479 1.3 1016967
19:00+9с367743 2.4 1015555
22:00+6св4893100 0.4 1017662
27 апреля, вт
вт2701:00+5св71094100 0.8 1018887
04:00+5св61092100 0.4 1019828
07:00+5св6108992 0.9 1019929
10:00+6св477977 0.3 1020928
13:00+7ссв357794 0.7 1019890
16:00+4св4895100 1.1 1020638
19:00+5св587965 1.4 10211104
22:00+3ссв488492 0.3 1022472